| time (UTC) | temp F | wind direction | speed MPH | gust MPH | rain 1hr in | rain 24hr in | rain mn in | humidity % | barometer mb |
| 20260509043351 | 84 | 4 | 4.0 | 5.0 | 0.00 | 0.00 | 0.33 | 82 | 1005.0 |
| 20260509042850 | 84 | 2 | 2.0 | 3.0 | 0.00 | 0.00 | 0.33 | 82 | 1005.0 |
| 20260509042351 | 84 | 96 | 3.0 | 3.0 | 0.00 | 0.00 | 0.33 | 82 | 1005.0 |
| 20260509041851 | 84 | 63 | 3.0 | 5.0 | 0.00 | 0.00 | 0.33 | 82 | 1006.0 |
| 20260509041350 | 84 | 43 | 2.0 | 3.0 | 0.00 | 0.00 | 0.33 | 84 | 1006.0 |
| 20260509040850 | 83 | 115 | 1.0 | 1.0 | 0.00 | 0.00 | 0.33 | 85 | 1006.0 |
| 20260509040350 | 83 | 145 | 0.0 | 0.0 | 0.00 | 0.00 | 0.33 | 85 | 1006.0 |
| 20260509035850 | 83 | 136 | 1.0 | 2.0 | 0.00 | 0.00 | 0.33 | 85 | 1006.0 |
| 20260509035350 | 82 | 132 | 0.0 | 1.0 | 0.00 | 0.00 | 0.33 | 87 | 1006.0 |
| 20260509034850 | 82 | 24 | 2.0 | 3.0 | 0.00 | 0.00 | 0.33 | 88 | 1006.0 |
| 20260509034350 | 81 | 126 | 0.0 | 1.0 | 0.00 | 0.00 | 0.33 | 89 | 1006.0 |
| 20260509033851 | 81 | 129 | 0.0 | 1.0 | 0.00 | 0.00 | 0.33 | 91 | 1005.0 |
| 20260509033350 | 81 | 62 | 2.0 | 2.0 | 0.00 | 0.00 | 0.33 | 92 | 1005.0 |
| 20260509032850 | 80 | 95 | 1.0 | 1.0 | 0.07 | 0.00 | 0.33 | 92 | 1005.0 |
| 20260509032350 | 80 | 120 | 0.0 | 0.0 | 0.07 | 0.00 | 0.33 | 92 | 1005.0 |
| 20260509031850 | 80 | 134 | 0.0 | 0.0 | 0.05 | 0.00 | 0.32 | 92 | 1005.0 |
| 20260509031350 | 80 | 180 | 0.0 | 0.0 | 0.05 | 0.00 | 0.32 | 93 | 1005.0 |
| 20260509030850 | 80 | 14 | 2.0 | 2.0 | 0.00 | 0.00 | 0.31 | 93 | 1005.0 |
| 20260509030351 | 80 | 87 | 1.0 | 1.0 | 0.00 | 0.00 | 0.31 | 93 | 1005.0 |
| 20260509025850 | 79 | 102 | 3.0 | 3.0 | 0.00 | 0.00 | 0.31 | 93 | 1005.0 |
| 20260509025351 | 79 | 151 | 1.0 | 1.0 | 0.00 | 0.00 | 0.31 | 93 | 1005.0 |
| 20260509024851 | 79 | 79 | 1.0 | 2.0 | 0.00 | 0.00 | 0.31 | 93 | 1005.0 |
| 20260509024350 | 79 | 138 | 0.0 | 1.0 | 0.00 | 0.00 | 0.31 | 92 | 1005.0 |
| 20260509023852 | 79 | 99 | 0.0 | 1.0 | 0.07 | 0.00 | 0.31 | 92 | 1005.0 |
| 20260509023350 | 79 | 144 | 0.0 | 0.0 | 0.07 | 0.00 | 0.31 | 92 | 1005.0 |
| 20260509022850 | 79 | 173 | 0.0 | 0.0 | 0.00 | 0.00 | 0.30 | 92 | 1005.0 |
| 20260509022351 | 79 | 125 | 0.0 | 0.0 | 0.00 | 0.00 | 0.30 | 92 | 1005.0 |
| 20260509021851 | 79 | 61 | 1.0 | 1.0 | 0.05 | 0.00 | 0.30 | 91 | 1005.0 |
| 20260509021350 | 80 | 56 | 2.0 | 2.0 | 0.12 | 0.00 | 0.30 | 90 | 1005.0 |
| 20260509020850 | 80 | 115 | 4.0 | 5.0 | 0.07 | 0.00 | 0.29 | 89 | 1005.0 |
| 20260509020350 | 80 | 58 | 1.0 | 2.0 | 0.00 | 0.00 | 0.28 | 89 | 1005.0 |
| 20260509015850 | 80 | 325 | 5.0 | 6.0 | 0.00 | 0.00 | 0.28 | 89 | 1005.0 |
| 20260509015350 | 80 | 122 | 0.0 | 1.0 | 0.00 | 0.00 | 0.28 | 90 | 1004.0 |
| 20260509014850 | 80 | 353 | 2.0 | 2.0 | 0.00 | 0.00 | 0.28 | 90 | 1004.0 |
| 20260509014350 | 80 | 359 | 2.0 | 2.0 | 0.00 | 0.00 | 0.28 | 91 | 1005.0 |
| 20260509013850 | 80 | 42 | 0.0 | 1.0 | 0.00 | 0.00 | 0.28 | 91 | 1004.0 |
| 20260509013350 | 79 | 59 | 1.0 | 1.0 | 0.00 | 0.00 | 0.28 | 91 | 1004.0 |
| 20260509012850 | 79 | 340 | 3.0 | 3.0 | 0.00 | 0.00 | 0.28 | 92 | 1004.0 |
| 20260509012350 | 79 | 146 | 1.0 | 1.0 | 0.00 | 0.00 | 0.28 | 92 | 1004.0 |
| 20260509011850 | 79 | 80 | 2.0 | 2.0 | 0.00 | 0.00 | 0.28 | 93 | 1004.0 |
| 20260509011350 | 80 | 7 | 2.0 | 2.0 | 0.00 | 0.00 | 0.28 | 92 | 1004.0 |
| 20260509010850 | 80 | 107 | 0.0 | 0.0 | 0.00 | 0.00 | 0.28 | 93 | 1004.0 |
| 20260509010350 | 80 | 101 | 0.0 | 0.0 | 0.00 | 0.00 | 0.28 | 93 | 1003.0 |
| 20260509005851 | 80 | 134 | 0.0 | 0.0 | 0.00 | 0.00 | 0.28 | 93 | 1003.0 |
| 20260509005350 | 80 | 132 | 2.0 | 2.0 | 0.00 | 0.00 | 0.28 | 93 | 1003.0 |
| 20260509004852 | 80 | 356 | 1.0 | 2.0 | 0.00 | 0.00 | 0.28 | 93 | 1003.0 |
| 20260509004351 | 80 | 171 | 0.0 | 0.0 | 0.00 | 0.00 | 0.28 | 93 | 1003.0 |
| 20260509003851 | 80 | 359 | 2.0 | 2.0 | 0.00 | 0.00 | 0.28 | 93 | 1003.0 |
| 20260509003350 | 79 | 166 | 0.0 | 0.0 | 0.00 | 0.00 | 0.28 | 93 | 1003.0 |
| 20260509002850 | 80 | 339 | 3.0 | 3.0 | 0.00 | 0.00 | 0.28 | 93 | 1003.0 |
| 20260509002350 | 80 | 32 | 0.0 | 1.0 | 0.00 | 0.00 | 0.28 | 93 | 1003.0 |
| 20260509001850 | 79 | 72 | 1.0 | 1.0 | 0.00 | 0.00 | 0.28 | 93 | 1003.0 |
| 20260509001350 | 79 | 50 | 2.0 | 2.0 | 0.00 | 0.00 | 0.28 | 93 | 1002.0 |
| 20260509000850 | 79 | 140 | 0.0 | 1.0 | 0.00 | 0.00 | 0.28 | 93 | 1002.0 |
| 20260509000350 | 79 | 8 | 5.0 | 6.0 | 0.00 | 0.00 | 0.28 | 93 | 1002.0 |
| 20260508235850 | 79 | 64 | 1.0 | 2.0 | 0.05 | 0.00 | 0.28 | 93 | 1002.0 |
| 20260508235350 | 79 | 108 | 0.0 | 0.0 | 0.05 | 0.00 | 0.28 | 93 | 1003.0 |
| 20260508234850 | 79 | 37 | 1.0 | 2.0 | 0.12 | 0.00 | 0.28 | 92 | 1002.0 |
| 20260508234350 | 80 | 135 | 0.0 | 1.0 | 0.19 | 0.00 | 0.27 | 92 | 1003.0 |
| 20260508233406 | 79 | 95 | 2.0 | 2.0 | 0.66 | 0.00 | 0.24 | 91 | 1003.0 |
| 20260508232851 | 80 | 43 | 2.0 | 3.0 | 1.25 | 0.00 | 0.22 | 90 | 1003.0 |
| 20260508232350 | 81 | 156 | 1.0 | 2.0 | 0.90 | 0.00 | 0.15 | 90 | 1003.0 |
| 20260508231851 | 82 | 65 | 0.0 | 1.0 | 0.12 | 0.00 | 0.02 | 88 | 1003.0 |
| 20260508231350 | 82 | 154 | 0.0 | 1.0 | 0.00 | 0.00 | 0.00 | 87 | 1002.0 |
| 20260508230850 | 82 | 138 | 0.0 | 1.0 | 0.00 | 0.00 | 0.00 | 87 | 1003.0 |
| 20260508230350 | 82 | 343 | 7.0 | 7.0 | 0.00 | 0.00 | 0.00 | 86 | 1002.0 |
| 20260508225850 | 82 | 6 | 1.0 | 2.0 | 0.00 | 0.00 | 0.00 | 85 | 1002.0 |
| 20260508225351 | 82 | 89 | 1.0 | 1.0 | 0.00 | 0.00 | 0.00 | 85 | 1002.0 |
| 20260508224851 | 82 | 305 | 2.0 | 2.0 | 0.00 | 0.00 | 0.00 | 85 | 1002.0 |
| 20260508224350 | 82 | 157 | 0.0 | 0.0 | 0.00 | 0.00 | 0.00 | 85 | 1002.0 |
| 20260508223850 | 82 | 26 | 1.0 | 2.0 | 0.00 | 0.00 | 0.00 | 84 | 1002.0 |
| 20260508223350 | 82 | 325 | 1.0 | 1.0 | 0.00 | 0.00 | 0.00 | 84 | 1002.0 |
| 20260508222850 | 82 | 179 | 1.0 | 1.0 | 0.00 | 0.00 | 0.00 | 84 | 1002.0 |
| 20260508222350 | 82 | 141 | 1.0 | 1.0 | 0.00 | 0.00 | 0.00 | 84 | 1002.0 |
| 20260508221850 | 82 | 134 | 0.0 | 0.0 | 0.00 | 0.00 | 0.00 | 83 | 1002.0 |
| 20260508221350 | 82 | 349 | 2.0 | 2.0 | 0.00 | 0.00 | 0.00 | 83 | 1002.0 |
| 20260508220850 | 82 | 347 | 1.0 | 2.0 | 0.00 | 0.00 | 0.00 | 84 | 1002.0 |
| 20260508220351 | 82 | 138 | 1.0 | 2.0 | 0.00 | 0.00 | 0.00 | 84 | 1002.0 |
| 20260508215850 | 82 | 123 | 1.0 | 1.0 | 0.00 | 0.00 | 0.00 | 84 | 1002.0 |
| 20260508215350 | 82 | 114 | 0.0 | 0.0 | 0.00 | 0.00 | 0.00 | 84 | 1002.0 |
| 20260508214850 | 82 | 146 | 0.0 | 0.0 | 0.00 | 0.00 | 0.00 | 84 | 1002.0 |
| 20260508214350 | 82 | 59 | 1.0 | 2.0 | 0.00 | 0.00 | 0.00 | 84 | 1002.0 |
| 20260508213850 | 82 | 174 | 1.0 | 2.0 | 0.00 | 0.00 | 0.00 | 84 | 1001.0 |
| 20260508213350 | 82 | 78 | 1.0 | 2.0 | 0.00 | 0.00 | 0.00 | 84 | 1002.0 |
| 20260508212850 | 82 | 233 | 1.0 | 1.0 | 0.00 | 0.00 | 0.00 | 84 | 1002.0 |
| 20260508212350 | 82 | 125 | 0.0 | 0.0 | 0.00 | 0.00 | 0.00 | 84 | 1002.0 |
| 20260508211850 | 82 | 153 | 0.0 | 0.0 | 0.00 | 0.00 | 0.00 | 84 | 1002.0 |
| 20260508211350 | 82 | 334 | 2.0 | 2.0 | 0.00 | 0.00 | 0.00 | 84 | 1002.0 |
| 20260508210851 | 82 | 127 | 0.0 | 1.0 | 0.00 | 0.00 | 0.00 | 84 | 1002.0 |
| 20260508210350 | 82 | 342 | 1.0 | 2.0 | 0.00 | 0.00 | 0.00 | 84 | 1002.0 |
| 20260508205850 | 82 | 147 | 1.0 | 1.0 | 0.00 | 0.00 | 0.00 | 84 | 1002.0 |
| 20260508205350 | 83 | 349 | 3.0 | 3.0 | 0.00 | 0.00 | 0.00 | 84 | 1002.0 |
| 20260508204851 | 83 | 351 | 3.0 | 5.0 | 0.00 | 0.00 | 0.00 | 83 | 1002.0 |
| 20260508204351 | 83 | 118 | 0.0 | 0.0 | 0.00 | 0.00 | 0.00 | 83 | 1002.0 |
| 20260508203850 | 83 | 169 | 0.0 | 1.0 | 0.00 | 0.00 | 0.00 | 83 | 1002.0 |
| 20260508203350 | 83 | 339 | 1.0 | 1.0 | 0.00 | 0.00 | 0.00 | 83 | 1002.0 |
| 20260508202857 | 83 | 116 | 2.0 | 2.0 | 0.00 | 0.00 | 0.00 | 83 | 1002.0 |
| 20260508202351 | 83 | 339 | 1.0 | 1.0 | 0.00 | 0.00 | 0.00 | 83 | 1002.0 |
| 20260508201850 | 83 | 8 | 3.0 | 3.0 | 0.00 | 0.00 | 0.00 | 83 | 1002.0 |
| 20260508201351 | 83 | 101 | 1.0 | 1.0 | 0.00 | 0.00 | 0.00 | 83 | 1002.0 |
| 20260508200857 | 83 | 331 | 1.0 | 1.0 | 0.00 | 0.00 | 0.00 | 82 | 1003.0 |
| 20260508200350 | 83 | 188 | 1.0 | 2.0 | 0.00 | 0.00 | 0.00 | 82 | 1002.0 |
| 20260508195851 | 83 | 347 | 3.0 | 3.0 | 0.00 | 0.00 | 0.00 | 82 | 1003.0 |
| 20260508195350 | 83 | 147 | 0.0 | 0.0 | 0.00 | 0.00 | 0.00 | 82 | 1002.0 |
| 20260508194851 | 83 | 329 | 1.0 | 1.0 | 0.00 | 0.00 | 0.00 | 82 | 1003.0 |
| 20260508194351 | 83 | 337 | 3.0 | 3.0 | 0.00 | 0.00 | 0.00 | 82 | 1003.0 |
| 20260508193853 | 83 | 341 | 2.0 | 2.0 | 0.00 | 0.00 | 0.00 | 82 | 1003.0 |
| 20260508193351 | 83 | 222 | 1.0 | 2.0 | 0.00 | 0.00 | 0.00 | 82 | 1003.0 |
| 20260508192850 | 84 | 129 | 1.0 | 1.0 | 0.00 | 0.00 | 0.00 | 81 | 1003.0 |
| 20260508192350 | 84 | 258 | 1.0 | 1.0 | 0.00 | 0.00 | 0.00 | 80 | 1003.0 |
| 20260508191854 | 84 | 151 | 0.0 | 1.0 | 0.00 | 0.00 | 0.00 | 79 | 1003.0 |
| 20260508191350 | 84 | 39 | 0.0 | 1.0 | 0.00 | 0.00 | 0.00 | 79 | 1003.0 |
| 20260508190850 | 84 | 150 | 0.0 | 0.0 | 0.00 | 0.00 | 0.00 | 79 | 1003.0 |
| 20260508190351 | 84 | 356 | 2.0 | 2.0 | 0.00 | 0.00 | 0.00 | 79 | 1003.0 |
| 20260508185850 | 84 | 145 | 0.0 | 0.0 | 0.00 | 0.00 | 0.00 | 79 | 1003.0 |
| 20260508185351 | 84 | 127 | 0.0 | 1.0 | 0.00 | 0.00 | 0.00 | 79 | 1003.0 |
| 20260508184851 | 84 | 348 | 1.0 | 2.0 | 0.00 | 0.00 | 0.00 | 78 | 1004.0 |
| 20260508184351 | 84 | 135 | 0.0 | 0.0 | 0.00 | 0.00 | 0.00 | 78 | 1004.0 |
| 20260508183850 | 84 | 139 | 0.0 | 0.0 | 0.00 | 0.00 | 0.00 | 78 | 1003.0 |
| 20260508183351 | 84 | 168 | 0.0 | 0.0 | 0.00 | 0.00 | 0.00 | 78 | 1003.0 |
| 20260508182850 | 84 | 138 | 1.0 | 1.0 | 0.00 | 0.00 | 0.04 | 78 | 1004.0 |
| 20260508182351 | 84 | 97 | 1.0 | 1.0 | 0.00 | 0.00 | 0.04 | 78 | 1004.0 |
| 20260508181851 | 84 | 135 | 0.0 | 0.0 | 0.00 | 0.00 | 0.04 | 78 | 1004.0 |
| 20260508181350 | 84 | 127 | 0.0 | 0.0 | 0.00 | 0.00 | 0.04 | 78 | 1004.0 |
| 20260508180851 | 84 | 135 | 0.0 | 0.0 | 0.00 | 0.00 | 0.04 | 78 | 1004.0 |
| 20260508180352 | 84 | 122 | 1.0 | 1.0 | 0.00 | 0.00 | 0.04 | 78 | 1004.0 |
| 20260508175850 | 84 | 114 | 2.0 | 2.0 | 0.00 | 0.00 | 0.04 | 78 | 1004.0 |
| 20260508175351 | 84 | 101 | 1.0 | 2.0 | 0.00 | 0.00 | 0.04 | 78 | 1004.0 |
| 20260508174850 | 84 | 85 | 3.0 | 5.0 | 0.00 | 0.00 | 0.04 | 77 | 1004.0 |
| 20260508174350 | 84 | 84 | 3.0 | 6.0 | 0.00 | 0.00 | 0.04 | 77 | 1004.0 |
| 20260508173853 | 85 | 96 | 4.0 | 5.0 | 0.00 | 0.00 | 0.04 | 77 | 1004.0 |
| 20260508173351 | 85 | 100 | 1.0 | 2.0 | 0.00 | 0.00 | 0.04 | 77 | 1004.0 |
| 20260508172851 | 85 | 55 | 2.0 | 2.0 | 0.00 | 0.00 | 0.04 | 77 | 1004.0 |
| 20260508172352 | 85 | 164 | 5.0 | 6.0 | 0.00 | 0.00 | 0.04 | 76 | 1004.0 |
| 20260508171852 | 85 | 154 | 1.0 | 1.0 | 0.00 | 0.00 | 0.04 | 76 | 1004.0 |
| 20260508171352 | 85 | 71 | 0.0 | 2.0 | 0.00 | 0.00 | 0.04 | 76 | 1004.0 |
| 20260508170851 | 85 | 151 | 0.0 | 0.0 | 0.00 | 0.00 | 0.04 | 76 | 1004.0 |
| 20260508170350 | 85 | 86 | 2.0 | 2.0 | 0.00 | 0.00 | 0.04 | 76 | 1005.0 |
| 20260508165850 | 85 | 174 | 1.0 | 1.0 | 0.00 | 0.00 | 0.04 | 76 | 1004.0 |
| 20260508165351 | 85 | 83 | 0.0 | 1.0 | 0.00 | 0.00 | 0.04 | 76 | 1005.0 |
| 20260508164850 | 84 | 122 | 1.0 | 1.0 | 0.00 | 0.00 | 0.04 | 76 | 1004.0 |
| 20260508164353 | 84 | 156 | 0.0 | 0.0 | 0.00 | 0.00 | 0.04 | 76 | 1004.0 |
| 20260508163851 | 84 | 94 | 2.0 | 2.0 | 0.00 | 0.00 | 0.04 | 76 | 1004.0 |
| 20260508163351 | 84 | 120 | 2.0 | 2.0 | 0.00 | 0.00 | 0.04 | 77 | 1004.0 |
| 20260508162850 | 84 | 140 | 2.0 | 2.0 | 0.00 | 0.00 | 0.04 | 78 | 1004.0 |
| 20260508162352 | 84 | 97 | 1.0 | 2.0 | 0.00 | 0.00 | 0.04 | 78 | 1004.0 |
| 20260508161851 | 84 | 81 | 2.0 | 2.0 | 0.00 | 0.00 | 0.04 | 77 | 1004.0 |
| 20260508161350 | 84 | 82 | 3.0 | 5.0 | 0.00 | 0.00 | 0.04 | 77 | 1004.0 |
| 20260508160850 | 84 | 95 | 1.0 | 1.0 | 0.00 | 0.00 | 0.04 | 79 | 1004.0 |
| 20260508160351 | 84 | 159 | 3.0 | 3.0 | 0.00 | 0.00 | 0.04 | 79 | 1004.0 |
| 20260508155852 | 84 | 118 | 1.0 | 2.0 | 0.00 | 0.00 | 0.04 | 79 | 1004.0 |
| 20260508155352 | 84 | 97 | 1.0 | 2.0 | 0.00 | 0.00 | 0.04 | 79 | 1004.0 |
| 20260508154850 | 84 | 140 | 0.0 | 0.0 | 0.00 | 0.00 | 0.04 | 78 | 1004.0 |
| 20260508154350 | 84 | 94 | 2.0 | 3.0 | 0.00 | 0.00 | 0.04 | 78 | 1004.0 |
| 20260508153851 | 84 | 80 | 1.0 | 1.0 | 0.00 | 0.00 | 0.04 | 78 | 1004.0 |
| 20260508153353 | 84 | 178 | 1.0 | 2.0 | 0.00 | 0.00 | 0.04 | 78 | 1004.0 |
| 20260508152852 | 84 | 165 | 4.0 | 6.0 | 0.00 | 0.00 | 0.04 | 77 | 1004.0 |
| 20260508152351 | 84 | 146 | 0.0 | 1.0 | 0.00 | 0.00 | 0.04 | 77 | 1004.0 |
| 20260508151850 | 84 | 140 | 2.0 | 3.0 | 0.00 | 0.00 | 0.04 | 77 | 1004.0 |
| 20260508151352 | 84 | 100 | 1.0 | 2.0 | 0.00 | 0.00 | 0.04 | 77 | 1004.0 |
| 20260508150851 | 84 | 67 | 2.0 | 2.0 | 0.00 | 0.00 | 0.04 | 78 | 1004.0 |
| 20260508150350 | 84 | 95 | 1.0 | 2.0 | 0.00 | 0.00 | 0.04 | 78 | 1004.0 |
| 20260508145850 | 84 | 101 | 3.0 | 5.0 | 0.00 | 0.00 | 0.04 | 78 | 1004.0 |
| 20260508145350 | 84 | 116 | 4.0 | 5.0 | 0.00 | 0.00 | 0.04 | 78 | 1004.0 |
| 20260508144850 | 84 | 112 | 3.0 | 3.0 | 0.00 | 0.00 | 0.04 | 78 | 1004.0 |
| 20260508144350 | 84 | 84 | 1.0 | 2.0 | 0.00 | 0.00 | 0.04 | 78 | 1004.0 |
| 20260508143851 | 84 | 120 | 3.0 | 3.0 | 0.00 | 0.00 | 0.04 | 78 | 1003.0 |
| 20260508143351 | 84 | 79 | 3.0 | 5.0 | 0.00 | 0.00 | 0.04 | 79 | 1004.0 |
| 20260508142850 | 84 | 177 | 3.0 | 5.0 | 0.00 | 0.00 | 0.04 | 79 | 1004.0 |
| 20260508142350 | 84 | 95 | 3.0 | 6.0 | 0.00 | 0.00 | 0.04 | 79 | 1004.0 |
| 20260508141851 | 85 | 86 | 3.0 | 5.0 | 0.00 | 0.00 | 0.04 | 79 | 1004.0 |
| 20260508141351 | 85 | 79 | 1.0 | 2.0 | 0.00 | 0.00 | 0.04 | 78 | 1004.0 |
| 20260508140851 | 84 | 80 | 3.0 | 5.0 | 0.00 | 0.00 | 0.04 | 78 | 1003.0 |
| 20260508140350 | 84 | 115 | 5.0 | 7.0 | 0.00 | 0.00 | 0.04 | 78 | 1003.0 |
| 20260508135850 | 84 | 76 | 3.0 | 3.0 | 0.00 | 0.00 | 0.04 | 78 | 1003.0 |
| 20260508135352 | 84 | 62 | 5.0 | 6.0 | 0.00 | 0.00 | 0.04 | 77 | 1003.0 |
| 20260508134850 | 84 | 90 | 3.0 | 5.0 | 0.00 | 0.00 | 0.04 | 77 | 1003.0 |
| 20260508134350 | 85 | 128 | 3.0 | 5.0 | 0.00 | 0.00 | 0.04 | 77 | 1003.0 |
| 20260508133852 | 85 | 60 | 3.0 | 5.0 | 0.00 | 0.00 | 0.04 | 76 | 1003.0 |
| 20260508133350 | 85 | 38 | 3.0 | 5.0 | 0.00 | 0.00 | 0.04 | 75 | 1003.0 |
| 20260508132850 | 85 | 62 | 3.0 | 3.0 | 0.00 | 0.00 | 0.04 | 75 | 1003.0 |
| 20260508132350 | 85 | 72 | 5.0 | 7.0 | 0.00 | 0.00 | 0.04 | 74 | 1003.0 |
| 20260508131850 | 85 | 71 | 3.0 | 3.0 | 0.00 | 0.00 | 0.04 | 75 | 1003.0 |
| 20260508131350 | 85 | 80 | 3.0 | 5.0 | 0.00 | 0.00 | 0.04 | 76 | 1003.0 |
| 20260508130850 | 85 | 58 | 3.0 | 5.0 | 0.00 | 0.00 | 0.04 | 76 | 1003.0 |
| 20260508130351 | 85 | 47 | 4.0 | 6.0 | 0.00 | 0.00 | 0.04 | 76 | 1003.0 |
| 20260508125850 | 85 | 83 | 5.0 | 8.0 | 0.00 | 0.00 | 0.04 | 77 | 1003.0 |
| 20260508125351 | 85 | 58 | 4.0 | 6.0 | 0.00 | 0.00 | 0.04 | 78 | 1003.0 |
| 20260508124850 | 85 | 82 | 7.0 | 9.0 | 0.00 | 0.00 | 0.04 | 77 | 1003.0 |
| 20260508124352 | 85 | 98 | 4.0 | 5.0 | 0.00 | 0.00 | 0.04 | 76 | 1002.0 |
| 20260508123851 | 85 | 127 | 1.0 | 2.0 | 0.00 | 0.00 | 0.04 | 76 | 1003.0 |
| 20260508123351 | 86 | 65 | 7.0 | 9.0 | 0.00 | 0.00 | 0.04 | 75 | 1003.0 |
| 20260508122850 | 86 | 96 | 3.0 | 3.0 | 0.00 | 0.00 | 0.04 | 75 | 1002.0 |
| 20260508122351 | 85 | 87 | 3.0 | 5.0 | 0.00 | 0.00 | 0.04 | 75 | 1003.0 |
| 20260508121851 | 85 | 67 | 4.0 | 7.0 | 0.00 | 0.00 | 0.04 | 76 | 1002.0 |
| 20260508121351 | 86 | 92 | 3.0 | 6.0 | 0.00 | 0.00 | 0.04 | 75 | 1002.0 |
| 20260508120851 | 86 | 103 | 3.0 | 5.0 | 0.00 | 0.00 | 0.04 | 74 | 1002.0 |
| 20260508120351 | 86 | 88 | 4.0 | 5.0 | 0.00 | 0.00 | 0.04 | 74 | 1002.0 |
| 20260508115851 | 86 | 75 | 6.0 | 9.0 | 0.00 | 0.00 | 0.04 | 72 | 1002.0 |
| 20260508115350 | 87 | 52 | 4.0 | 5.0 | 0.00 | 0.00 | 0.04 | 70 | 1002.0 |
| 20260508114850 | 87 | 98 | 5.0 | 8.0 | 0.00 | 0.00 | 0.04 | 69 | 1002.0 |
| 20260508114355 | 87 | 335 | 7.0 | 10.0 | 0.00 | 0.00 | 0.04 | 68 | 1002.0 |
| 20260508113852 | 87 | 142 | 0.0 | 1.0 | 0.00 | 0.00 | 0.04 | 66 | 1002.0 |
| 20260508113350 | 87 | 59 | 4.0 | 5.0 | 0.00 | 0.00 | 0.04 | 66 | 1002.0 |
| 20260508112850 | 87 | 67 | 4.0 | 5.0 | 0.00 | 0.00 | 0.04 | 66 | 1002.0 |
| 20260508112353 | 87 | 65 | 4.0 | 7.0 | 0.00 | 0.00 | 0.04 | 65 | 1002.0 |
| 20260508111850 | 88 | 135 | 1.0 | 2.0 | 0.00 | 0.00 | 0.04 | 64 | 1002.0 |
| 20260508111350 | 89 | 104 | 6.0 | 9.0 | 0.00 | 0.00 | 0.04 | 62 | 1002.0 |
| 20260508110850 | 89 | 45 | 5.0 | 8.0 | 0.00 | 0.00 | 0.04 | 57 | 1002.0 |
| 20260508110350 | 89 | 51 | 6.0 | 8.0 | 0.00 | 0.00 | 0.04 | 58 | 1002.0 |
| 20260508105850 | 89 | 75 | 5.0 | 6.0 | 0.00 | 0.00 | 0.04 | 57 | 1002.0 |
| 20260508105350 | 90 | 91 | 1.0 | 3.0 | 0.00 | 0.00 | 0.04 | 55 | 1002.0 |
| 20260508104850 | 90 | 51 | 8.0 | 14.0 | 0.00 | 0.00 | 0.04 | 56 | 1002.0 |
| 20260508104350 | 90 | 83 | 7.0 | 10.0 | 0.00 | 0.00 | 0.04 | 55 | 1002.0 |
| 20260508103850 | 90 | 33 | 4.0 | 7.0 | 0.00 | 0.00 | 0.04 | 56 | 1002.0 |
| 20260508103351 | 90 | 353 | 6.0 | 9.0 | 0.00 | 0.00 | 0.04 | 56 | 1002.0 |
| 20260508102850 | 90 | 77 | 1.0 | 2.0 | 0.00 | 0.00 | 0.04 | 56 | 1002.0 |
| 20260508102350 | 90 | 81 | 5.0 | 8.0 | 0.00 | 0.00 | 0.04 | 57 | 1002.0 |
| 20260508101851 | 90 | 46 | 3.0 | 5.0 | 0.00 | 0.00 | 0.04 | 56 | 1002.0 |
| 20260508101350 | 90 | 93 | 2.0 | 2.0 | 0.00 | 0.00 | 0.04 | 56 | 1002.0 |
| 20260508100852 | 89 | 77 | 5.0 | 7.0 | 0.00 | 0.00 | 0.04 | 60 | 1002.0 |
| 20260508100351 | 89 | 113 | 5.0 | 7.0 | 0.00 | 0.00 | 0.04 | 59 | 1002.0 |
| 20260508095851 | 89 | 103 | 5.0 | 9.0 | 0.00 | 0.00 | 0.04 | 58 | 1002.0 |
| 20260508095351 | 88 | 164 | 6.0 | 9.0 | 0.00 | 0.00 | 0.04 | 59 | 1002.0 |
| 20260508094850 | 89 | 58 | 4.0 | 7.0 | 0.00 | 0.00 | 0.04 | 62 | 1002.0 |
| 20260508094352 | 88 | 78 | 6.0 | 9.0 | 0.00 | 0.00 | 0.04 | 61 | 1002.0 |
| 20260508093850 | 88 | 51 | 7.0 | 11.0 | 0.00 | 0.00 | 0.04 | 62 | 1002.0 |
| 20260508093351 | 88 | 72 | 6.0 | 9.0 | 0.00 | 0.00 | 0.04 | 64 | 1002.0 |
| 20260508092850 | 88 | 58 | 5.0 | 8.0 | 0.00 | 0.00 | 0.04 | 65 | 1002.0 |
| 20260508092350 | 88 | 112 | 7.0 | 8.0 | 0.00 | 0.00 | 0.04 | 66 | 1002.0 |
| 20260508091850 | 87 | 81 | 9.0 | 10.0 | 0.00 | 0.00 | 0.04 | 68 | 1002.0 |
| 20260508091352 | 87 | 85 | 9.0 | 10.0 | 0.00 | 0.00 | 0.04 | 67 | 1002.0 |
| 20260508090445 | 87 | 120 | 6.0 | 9.0 | 0.00 | 0.00 | 0.04 | 68 | 1002.0 |
| 20260508085850 | 87 | 71 | 6.0 | 7.0 | 0.00 | 0.00 | 0.04 | 69 | 1002.0 |
| 20260508085350 | 87 | 85 | 5.0 | 6.0 | 0.00 | 0.00 | 0.04 | 69 | 1002.0 |
| 20260508084854 | 87 | 57 | 5.0 | 7.0 | 0.00 | 0.00 | 0.04 | 69 | 1002.0 |
| 20260508084350 | 87 | 99 | 7.0 | 8.0 | 0.00 | 0.00 | 0.04 | 68 | 1002.0 |
| 20260508083850 | 87 | 28 | 9.0 | 9.0 | 0.00 | 0.00 | 0.04 | 69 | 1002.0 |
| 20260508083352 | 87 | 49 | 5.0 | 7.0 | 0.00 | 0.00 | 0.04 | 70 | 1002.0 |
| 20260508082853 | 87 | 72 | 5.0 | 7.0 | 0.00 | 0.00 | 0.04 | 69 | 1002.0 |
| 20260508082352 | 87 | 74 | 7.0 | 9.0 | 0.00 | 0.00 | 0.04 | 70 | 1002.0 |
| 20260508081852 | 87 | 71 | 4.0 | 8.0 | 0.00 | 0.00 | 0.04 | 70 | 1003.0 |
| 20260508081351 | 87 | 89 | 7.0 | 9.0 | 0.00 | 0.00 | 0.04 | 70 | 1003.0 |
| 20260508080850 | 87 | 87 | 3.0 | 5.0 | 0.00 | 0.00 | 0.04 | 70 | 1003.0 |
| 20260508080351 | 87 | 39 | 4.0 | 6.0 | 0.00 | 0.00 | 0.04 | 68 | 1003.0 |
| 20260508075850 | 87 | 95 | 7.0 | 9.0 | 0.00 | 0.00 | 0.04 | 69 | 1003.0 |
| 20260508075350 | 87 | 78 | 5.0 | 6.0 | 0.00 | 0.00 | 0.04 | 71 | 1003.0 |
| 20260508074850 | 87 | 61 | 3.0 | 10.0 | 0.00 | 0.00 | 0.04 | 70 | 1003.0 |
| 20260508074351 | 87 | 32 | 3.0 | 3.0 | 0.00 | 0.00 | 0.04 | 71 | 1003.0 |
| 20260508073851 | 88 | 118 | 5.0 | 9.0 | 0.00 | 0.00 | 0.04 | 71 | 1003.0 |
| 20260508073350 | 87 | 91 | 3.0 | 6.0 | 0.00 | 0.00 | 0.04 | 72 | 1003.0 |
| 20260508072850 | 87 | 12 | 5.0 | 7.0 | 0.00 | 0.00 | 0.04 | 73 | 1003.0 |
| 20260508072351 | 87 | 86 | 9.0 | 11.0 | 0.00 | 0.00 | 0.04 | 73 | 1003.0 |
| 20260508071851 | 87 | 80 | 5.0 | 7.0 | 0.00 | 0.00 | 0.04 | 73 | 1004.0 |
| 20260508071350 | 87 | 71 | 6.0 | 7.0 | 0.00 | 0.00 | 0.04 | 74 | 1004.0 |
| 20260508070850 | 87 | 58 | 6.0 | 10.0 | 0.00 | 0.00 | 0.04 | 75 | 1004.0 |
| 20260508065948 | 86 | 58 | 7.0 | 10.0 | 0.00 | 0.00 | 0.04 | 75 | 1004.0 |
| 20260508065351 | 86 | 29 | 9.0 | 14.0 | 0.00 | 0.00 | 0.04 | 75 | 1004.0 |
| 20260508064850 | 86 | 97 | 13.0 | 15.0 | 0.00 | 0.00 | 0.04 | 75 | 1004.0 |
| 20260508064351 | 86 | 86 | 8.0 | 11.0 | 0.00 | 0.00 | 0.04 | 75 | 1004.0 |
| 20260508063850 | 86 | 80 | 6.0 | 9.0 | 0.00 | 0.00 | 0.04 | 74 | 1005.0 |
| 20260508063350 | 86 | 145 | 3.0 | 5.0 | 0.00 | 0.00 | 0.04 | 74 | 1004.0 |
| 20260508062851 | 85 | 81 | 9.0 | 13.0 | 0.00 | 0.00 | 0.04 | 76 | 1004.0 |
| 20260508062350 | 85 | 65 | 5.0 | 7.0 | 0.00 | 0.00 | 0.04 | 77 | 1004.0 |
| 20260508061850 | 85 | 65 | 7.0 | 10.0 | 0.00 | 0.00 | 0.04 | 78 | 1005.0 |
| 20260508061350 | 85 | 86 | 9.0 | 14.0 | 0.00 | 0.00 | 0.04 | 77 | 1005.0 |
| 20260508060850 | 85 | 73 | 3.0 | 5.0 | 0.00 | 0.00 | 0.04 | 77 | 1005.0 |
| 20260508060351 | 85 | 85 | 8.0 | 15.0 | 0.00 | 0.00 | 0.04 | 78 | 1005.0 |
| 20260508055850 | 85 | 128 | 7.0 | 9.0 | 0.00 | 0.00 | 0.04 | 81 | 1005.0 |
| 20260508055351 | 85 | 89 | 12.0 | 14.0 | 0.00 | 0.00 | 0.04 | 80 | 1005.0 |
| 20260508054850 | 85 | 64 | 7.0 | 10.0 | 0.00 | 0.00 | 0.04 | 81 | 1005.0 |
| 20260508054350 | 84 | 145 | 4.0 | 6.0 | 0.00 | 0.00 | 0.04 | 83 | 1005.0 |
| 20260508053851 | 84 | 91 | 5.0 | 7.0 | 0.00 | 0.00 | 0.04 | 86 | 1005.0 |
| 20260508053350 | 84 | 84 | 4.0 | 5.0 | 0.00 | 0.00 | 0.04 | 88 | 1005.0 |
| 20260508052852 | 84 | 91 | 3.0 | 5.0 | 0.19 | 0.00 | 0.04 | 88 | 1005.0 |
| 20260508052351 | 84 | 159 | 5.0 | 7.0 | 0.24 | 0.00 | 0.04 | 86 | 1005.0 |
| 20260508051851 | 85 | 102 | 4.0 | 8.0 | 0.05 | 0.00 | 0.01 | 83 | 1005.0 |
| 20260508051350 | 85 | 153 | 4.0 | 5.0 | 0.00 | 0.00 | 0.00 | 80 | 1004.0 |
| 20260508050850 | 87 | 106 | 4.0 | 6.0 | 0.00 | 0.00 | 0.00 | 77 | 1005.0 |
| 20260508050351 | 88 | 19 | 3.0 | 5.0 | 0.00 | 0.00 | 0.00 | 74 | 1005.0 |
| 20260508045850 | 88 | 83 | 9.0 | 11.0 | 0.00 | 0.00 | 0.00 | 72 | 1005.0 |
| 20260508045351 | 88 | 142 | 7.0 | 11.0 | 0.00 | 0.00 | 0.00 | 72 | 1004.0 |
| 20260508044850 | 88 | 72 | 11.0 | 15.0 | 0.00 | 0.00 | 0.00 | 73 | 1005.0 |
| 20260508044350 | 88 | 83 | 7.0 | 9.0 | 0.00 | 0.00 | 0.00 | 72 | 1005.0 |
| 20260508043850 | 88 | 77 | 9.0 | 10.0 | 0.00 | 0.00 | 0.00 | 72 | 1005.0 |